Location: La Ronge
(55.1000°N, 105.3000°W)
Time: 14:23:52
(UTC-06:00)

Daily predictions for brighter satellites

Satellite Brightness Start Highest point End
(mag) Time Altitude Azimuth Time Altitude Azimuth Time Altitude Azimuth
CZ-4C R/B 2.3 19:09:24 10° SW 19:14:57 77° SE 19:21:22 10° NE
Cosmos 2322 Rocket 4.3 19:10:57 10° WNW 19:15:11 21° NNW 19:19:26 10° NNE
Cosmos 2233 Rocket 4.2 19:12:39 10° SSW 19:18:59 84° WNW 19:25:23 10° N
Cosmos 482 Debris 3.8 19:17:15 10° WSW 19:19:09 36° S 19:21:47 10° E
ERBS 2.4 19:16:01 10° WNW 19:19:31 77° NNE 19:23:02 10° ESE
CENTAUR R/B 4.0 19:18:09 10° SE 19:21:11 14° ESE 19:24:23 10° ENE
ATLAS 5 CENTAUR R/B 2.8 19:17:21 10° S 19:21:34 29° ESE 19:26:07 10° ENE
Cosmos 1484 Rocket 3.8 19:19:07 10° S 19:22:55 53° W 19:26:50 10° NNW
Cosmos 2237 Rocket 2.4 19:20:41 10° SW 19:26:23 78° NW 19:32:05 10° NNE
FengYun 1-2 T 4.3 19:21:09 10° SE 19:26:31 58° ENE 19:31:55 10° N
Cosmos 1758 3.9 19:22:48 10° SSE 19:26:34 36° E 19:30:22 10° NNE
ALOS 2.7 19:24:23 10° SE 19:28:48 43° ENE 19:33:14 10° N
COSMOS 2428 4.1 19:23:58 10° WSW 19:29:19 39° NW 19:34:42 10° NNE
Helios 1A 3.0 19:26:51 10° SSE 19:31:01 63° ENE 19:35:13 10° N
USA 186 3.0 19:30:07 12° E 19:31:09 15° ENE 19:32:41 10° NNE
NOSS 3-2 (C) 3.9 19:25:24 10° SSW 19:31:14 44° ESE 19:37:38 10° NE
COSMOS 2455 3.7 19:26:38 10° WSW 19:32:32 53° NW 19:38:29 10° NE
Cosmos 1544 4.0 19:31:33 10° SSE 19:34:49 29° E 19:38:06 10° NNE
Spot 2 Rocket 3.5 19:29:53 10° SSE 19:34:55 79° ENE 19:40:00 10° NNW
Cosmos 1743 Rocket 3.6 19:32:12 10° N 19:36:39 61° ENE 19:41:01 10° SSE
Meteor 1-21 Rocket 4.2 19:34:25 10° NNW 19:40:03 85° ENE 19:45:36 10° SSE
Cosmos 1980 4.3 19:35:24 10° SW 19:41:01 61° NW 19:46:40 10° NNE
Resurs 1-3 3.6 19:37:02 10° SSE 19:41:23 69° ENE 19:45:47 10° NNW
Cosmos 1766 3.4 19:39:56 10° SSW 19:43:55 83° W 19:47:58 10° N
METEOR-M 4.2 19:39:04 10° SSE 19:44:26 84° WSW 19:49:51 10° NNW
Envisat 4.2 19:42:35 12° ESE 19:46:07 25° NE 19:50:12 10° N
Cosmos 1867 4.3 19:41:21 10° WSW 19:46:45 56° NNW 19:52:10 10° NE
HJ-1C 3.4 19:43:22 10° SSE 19:46:45 84° WSW 19:50:09 10° NNW
Resurs 01 Rocket 1.7 19:42:46 10° SSE 19:47:14 87° WSW 19:51:43 10° NNW
SL-16 R/B 2.2 19:42:21 10° SSW 19:48:04 80° ESE 19:53:48 10° NE
SL-14 R/B 4.5 19:46:43 10° N 19:50:07 25° ENE 19:52:22 16° ESE
Meteor 1-28 Rocket 3.1 19:50:16 10° NNE 19:54:02 79° ESE 19:57:45 10° S
COSMO-SKYMED 1 3.2 19:49:52 10° N 19:54:10 60° WNW 19:58:27 10° SSW
CZ-2D R/B 3.4 19:51:58 10° SSE 19:55:47 54° ENE 19:59:35 10° N
Helios 1B rocket 2.6 19:52:41 10° NNE 19:56:42 47° E 20:00:41 10° S
CZ-4 DEB 4.4 19:56:20 16° ENE 19:56:45 17° ENE 19:58:50 10° NNE
USA 215 4.2 19:53:08 11° ENE 19:58:19 26° SE 20:03:38 10° S
Cosmos 1939 Rocket 4.2 19:57:02 18° E 19:58:42 23° ENE 20:01:51 10° N
FREGAT/IRIS 4.2 19:56:22 10° S 19:59:18 38° W 20:02:15 10° NNW
FENGYUN 3A 3.6 19:55:18 10° SSE 20:00:41 76° ENE 20:06:07 10° NNW
Cosmos 2219 Rocket 3.6 19:55:42 10° WSW 20:01:00 39° NW 20:06:20 10° NNE
Cosmos 1346 3.9 19:59:21 10° NNW 20:02:16 51° W 20:05:10 10° S
H-2A R/B 4.1 20:01:49 10° NE 20:03:02 11° NE 20:04:16 10° NNE
GP-B 3.7 19:59:51 10° NNE 20:04:00 36° E 20:08:05 10° SSE
Cosmos 2360 Rocket 4.4 19:59:46 10° WNW 20:04:04 21° NNW 20:08:23 10° NNE
Nadezhda 4 Rocket 4.1 19:58:17 10° NNW 20:04:38 87° W 20:10:53 10° S
Cosmos 1980 Rocket 4.4 20:02:37 10° NW 20:06:08 16° N 20:09:39 10° NE
H-2A R/B 2.7 20:04:04 10° SSE 20:07:56 69° ENE 20:11:47 10° N
Meteor 2-12 Rocket 4.4 20:02:48 10° S 20:08:56 76° E 20:15:07 10° NNE
CZ-4B DEB 2.7 20:05:49 10° SSE 20:09:05 87° E 20:12:23 10° NNW
Cosmos 1805 3.2 20:07:03 10° S 20:10:59 88° W 20:14:59 10° NNE
Aureole 2 Rocket 3.7 20:07:27 10° SW 20:11:42 54° WNW 20:15:45 10° NNE
Meteor 1-29 3.0 20:08:31 10° NNE 20:12:01 56° ESE 20:15:28 10° S
Lacrosse 4 Rocket 3.9 20:09:55 10° NW 20:12:45 16° N 20:15:34 10° NE
Cosmos 1092 Rocket 3.9 20:07:26 10° N 20:13:43 84° ENE 20:19:54 10° SSE
Cosmos 1943 Rocket 2.2 20:11:38 10° NNW 20:17:18 65° NE 20:21:09 20° SE
ERS-1 Rocket 3.4 20:15:36 20° SE 20:18:42 43° ENE 20:23:28 10° N
Cosmos 1953 2.5 20:14:57 10° SSW 20:18:55 73° WNW 20:22:57 10° N
Cosmos 1805 Rocket 4.1 20:14:49 10° N 20:19:02 39° ENE 20:20:59 25° ESE
ATLAS 3B R/B 3.5 20:12:20 10° W 20:19:40 53° NNW 20:26:40 10° NE
Cosmos 1655 Rocket 4.1 20:13:59 10° N 20:20:08 55° ENE 20:25:31 14° SSE
Cosmos 2369 Rocket 2.5 20:15:37 10° NW 20:21:15 69° WSW 20:26:53 10° SSE
Cosmos 2058 3.1 20:18:05 10° N 20:22:06 48° ENE 20:24:08 25° SE
Cosmos 1110 Rocket 4.0 20:16:54 10° NNW 20:22:13 80° ENE 20:26:25 17° SSE
H-2A R/B 3.3 20:23:11 23° E 20:24:19 26° ENE 20:28:04 10° N
Cosmos 2151 2.8 20:21:10 10° N 20:25:25 72° ENE 20:28:44 16° SSE
Cosmos 2026 Rocket 3.9 20:19:42 10° N 20:25:46 64° ENE 20:31:32 12° SSE
Cosmos-2242 3.3 20:24:02 10° SSW 20:28:24 70° WNW 20:32:50 10° N
Cosmos 1943 3.6 20:24:24 10° S 20:29:32 37° ESE 20:34:40 10° NE
Cosmos 2263 4.4 20:25:04 10° NW 20:30:53 77° WSW 20:35:41 15° SSE
Cosmos 1633 Rocket 3.8 20:27:31 10° N 20:31:30 32° ENE 20:32:18 30° E
Cosmos 1733 3.2 20:29:26 10° S 20:33:14 59° E 20:37:03 10° NNE
Cosmos 2221 3.2 20:34:04 31° E 20:34:04 31° E 20:37:55 10° NNE
Cosmos 1470 2.6 20:31:40 10° S 20:35:32 74° E 20:39:25 10° NNE
Cosmos 1674 3.7 20:31:52 10° NNW 20:35:37 48° W 20:39:22 10° S
Cosmos 1603 3.6 20:29:58 10° SSW 20:35:43 77° ESE 20:41:30 10° NE
Cosmos 1703 4.0 20:32:27 10° N 20:36:03 33° ENE 20:36:17 33° ENE
ATLAS CENTAUR R/B 4.5 20:30:23 10° SW 20:37:25 71° SE 21:01:49 10° ENE
Cosmos 1634 Rocket 4.0 20:31:22 10° S 20:37:29 61° E 20:43:35 10° NNE
SL-16 R/B 4.5 20:34:35 10° NW 20:38:05 16° N 20:41:34 10° NE
ASTEX 1 3.3 20:35:06 10° N 20:40:03 89° WNW 20:44:58 10° S
NOSS 3-2 (A) 3.7 20:35:44 10° SW 20:42:03 83° NW 20:49:08 10° NE
Cosmos 2251 Rocket 4.2 20:44:51 32° E 20:44:51 32° E 20:49:03 10° NE
YAOGAN 11 4.0 20:44:53 36° SE 20:46:31 67° ENE 20:50:49 10° NNW
YAOGAN 6 4.0 20:47:46 25° NE 20:47:46 25° NE 20:50:17 10° N
USA 238 DEB 4.3 20:43:31 10° WSW 20:50:27 57° NNW 20:57:25 10° NE
USA 238 4.3 20:43:36 10° WSW 20:50:33 57° NNW 20:57:31 10° NE
Cosmos 1842 Rocket 3.6 20:48:38 10° SSW 20:52:58 77° WNW 20:57:24 10° N
Meteor 2-20 4.4 20:47:09 10° N 20:53:19 67° ENE 20:56:40 28° SSE
Cosmos 2333 Rocket 4.1 20:48:32 10° W 20:53:30 29° NNW 20:58:29 10° NNE
Cosmos 1331 Rocket 4.2 20:49:01 10° NNW 20:54:20 71° WSW 20:57:38 23° SSE
BREEZE-M DEB (TANK) 4.3 20:44:32 10° W 20:55:10 36° SSW 20:57:17 25° SSE
ERBS 3.4 20:52:55 10° WNW 20:56:11 36° SW 20:56:38 35° SSW
Cosmos 1666 Rocket 3.5 20:53:47 10° N 20:58:13 63° ENE 20:59:08 50° SE
Cosmos 2322 Rocket 4.4 20:57:57 10° NNW 21:01:28 16° N 21:05:00 10° NE
Meteor 2-1 Rocket 4.4 20:58:50 26° SSE 21:01:58 53° E 21:07:43 10° NNE
USA 186 3.2 21:01:54 25° W 21:02:01 25° W 21:04:08 10° NW
SPOT 5 2.9 21:02:32 46° ENE 21:02:45 47° ENE 21:06:58 10° N
CZ-4C R/B 3.3 20:58:18 10° W 21:03:58 48° NNW 21:10:29 10° NE
ATLAS 5 CENTAUR R/B 2.1 21:00:48 10° WSW 21:05:49 76° NW 21:11:02 12° NE
ALOS 3.9 21:02:10 10° SSW 21:06:23 33° W 21:10:37 10° NNW
Cosmos 1302 Rocket 3.9 21:02:02 10° NNW 21:07:17 86° WSW 21:09:11 41° SSE
Cosmos 724 4.4 21:01:53 10° SW 21:07:54 84° NW 21:14:08 10° NE
Meteor 1-16 Rocket 3.9 21:04:29 10° S 21:09:46 73° E 21:15:08 10° NNE
CENTAUR R/B 2.6 21:04:06 10° SSW 21:10:12 55° SE 21:17:07 10° NE
Cosmos 2237 Rocket 4.2 21:06:36 10° W 21:11:21 26° NNW 21:16:06 10° NNE
Cosmos 1933 Rocket 4.3 21:07:08 10° N 21:10:53 37° NE 21:10:53 37° NE
Cosmos 1626 3.0 21:07:43 10° N 21:10:29 38° NNE 21:10:29 38° NNE
Cosmos 1437 Rocket 3.4 21:12:36 43° NE 21:12:36 43° NE 21:15:24 10° NNE
Cosmos 1697 Rocket 4.2 21:08:44 10° NNW 21:13:12 23° NNE 21:15:05 20° NE
MetOp-A 4.1 21:16:40 51° ESE 21:17:48 65° ENE 21:23:08 10° NNW
Cosmos 1992 Rocket 4.3 21:14:04 10° NNW 21:19:13 50° NE 21:19:46 48° ENE
Cosmos 1048 Rocket 4.3 21:14:29 10° SW 21:19:45 68° WNW 21:24:58 10° NNE
Cosmos 1470 Rocket 4.1 21:16:06 10° N 21:19:37 43° NE 21:19:37 43° NE
Cosmos 1656 Rocket 3.5 21:16:02 10° NNW 21:21:31 87° ENE 21:22:45 55° SE
NOSS 3-2 (C) 3.9 21:15:34 10° WSW 21:21:56 69° NNW 21:29:03 10° NE
Envisat 3.1 21:22:48 39° S 21:24:43 73° WSW 21:29:50 10° NNW
SL-14 R/B 4.3 21:22:39 10° NNW 21:26:31 44° W 21:27:52 32° SW
Cosmos 1340 Rocket 4.2 21:24:26 10° N 21:26:42 27° NNE 21:26:42 27° NNE
CZ-4 DEB 4.2 21:28:56 37° WNW 21:28:56 37° WNW 21:31:14 10° NNW
ARGOS 3.3 21:28:42 53° E 21:29:08 54° ENE 21:34:26 10° N
Cosmos 2369 4.4 21:24:29 10° NNW 21:29:55 40° NE 21:30:46 38° ENE
Sich 1 3.1 21:27:48 10° NNW 21:32:13 73° W 21:32:34 68° SW
SL-16 R/B 3.9 21:27:43 10° W 21:32:48 32° NW 21:37:53 10° NNE
Cosmos 1939 Rocket 3.4 21:32:59 49° SW 21:33:25 52° W 21:37:18 10° NNW
Cosmos 158 Rocket 4.0 21:32:33 10° SW 21:37:25 73° WNW 21:42:22 10° NNE
H-2A R/B 2.8 21:41:40 39° NE 21:41:40 39° NE 21:45:59 10° N
Cosmos 2180 Rocket 4.3 21:38:39 38° S 21:41:13 84° E 21:47:26 10° NNE
USA 215 3.1 21:40:32 48° E 21:42:13 64° SSE 21:48:42 10° SW
USA 81 4.2 21:43:37 57° NE 21:43:37 57° NE 21:48:13 10° NNE
SeaSat 1 3.4 21:40:20 10° NE 21:43:06 34° NE 21:43:06 34° NE
Cosmos 2285 Rocket 4.0 21:45:17 10° NNW 21:51:40 64° ENE 21:52:17 61° E
Cosmos 1980 Rocket 3.6 21:47:29 10° NNW 21:52:12 26° NNE 21:53:11 25° NE
Lacrosse 4 Rocket 3.3 21:49:24 10° NNW 21:53:02 23° NNE 21:53:06 23° NNE
SL-08 RB Rocket 4.4 21:55:17 47° N 21:55:17 47° N 21:58:38 10° N
Terra 2.9 21:58:12 34° NNE 21:58:12 34° NNE 22:01:27 10° N
NOAA 11 4.0 21:57:23 85° E 21:57:26 86° ENE 22:02:54 10° NNW
ERS-1 Rocket 4.2 21:55:37 27° SW 21:57:35 37° W 22:02:16 10° NNW
Cosmos 2279 Rocket 4.2 21:54:11 18° SSW 21:58:53 67° WNW 22:05:07 10° N
H-2A R/B 2.7 22:00:19 56° W 22:00:19 56° W 22:04:32 10° NNW
Cosmos 1943 Rocket 3.6 21:55:50 10° NW 22:00:43 31° WSW 22:02:42 24° SW
SPOT 1/Viking Rocket 3.5 22:04:45 79° NW 22:04:45 79° NW 22:09:37 10° NNW
Cosmos 2266 Rocket 4.1 22:02:35 10° NNW 22:08:56 70° W 22:10:10 56° SSW
Cosmos 1633 Rocket 4.3 22:05:19 10° NNW 22:09:21 37° W 22:09:23 37° W
Cosmos 2221 3.9 22:10:55 35° W 22:11:37 37° WNW 22:15:40 10° N
MetOp-B 4.5 22:11:14 55° WSW 22:11:39 57° WSW 22:16:58 10° NNW
ATLAS 3B R/B 3.7 22:04:47 10° WNW 22:11:45 43° N 22:15:10 26° ENE
Cosmos 1943 3.8 22:07:55 10° SW 22:13:27 55° NW 22:19:00 10° NNE
Meteor 2-3 Rocket 4.3 22:17:21 10° N 22:22:06 51° NNE 22:22:06 51° NNE
SL-16 R/B 3.9 22:19:57 10° NNW 22:24:22 22° NNE 22:25:24 21° NE
Cosmos 2251 Rocket 4.1 22:25:11 43° WSW 22:26:30 54° NW 22:31:40 10° NNE
Nimbus 7 Rocket 4.4 22:26:26 10° NNE 22:32:28 78° WNW 22:32:28 78° WNW
Cosmos 2278 4.2 22:41:25 10° NW 22:46:01 58° NW 22:46:01 58° NW
Cosmos 2322 Rocket 3.7 22:42:45 10° NNW 22:47:33 27° NNE 22:47:39 27° NNE
ATLAS 5 CENTAUR R/B 3.3 22:46:22 10° W 22:51:15 38° N 22:52:34 33° NNE
CZ-4C R/B 3.5 22:47:52 10° WNW 22:53:47 42° N 22:55:50 34° NE
Cosmos 1697 Rocket 3.5 22:52:39 10° NNW 22:56:48 47° N 22:56:48 47° N
Cosmos 1745 Rocket 4.3 22:53:19 10° N 22:58:29 61° N 22:58:29 61° N
CENTAUR R/B 3.1 22:54:26 10° WSW 23:00:55 62° NNW 23:08:20 10° NE
COSMOS 2455 4.4 23:02:14 10° NW 23:07:28 29° NNE 23:08:45 27° NE
H-2A R/B 3.6 23:22:18 31° NW 23:22:18 31° NW 23:25:31 10° NNW
SeaSat 1 4.1 23:18:12 10° NNE 23:22:32 31° NW 23:22:49 31° NW
USA 215 4.0 23:27:56 42° W 23:27:56 42° W 23:32:01 10° W
Lacrosse 4 Rocket 4.1 23:28:03 10° NW 23:29:26 19° NNW 23:29:26 19° NNW
Terra 3.9 23:37:06 23° NW 23:37:06 23° NW 23:39:14 10° NNW
Cosmos 2360 Rocket 3.9 23:31:36 10° NNW 23:36:07 26° NNE 23:36:07 26° NNE
Cosmos 1980 Rocket 3.4 23:31:26 10° NNW 23:34:56 38° NNW 23:34:56 38° NNW
